(23) Thalia
ephemeris date magn radius delta ra dec elong phase
Today5 Sep 202611.53.043 AU2.061 AU23h41m-18°10'164.0°5.3°
Opposition9 Sep 202611.53.036 AU2.051 AU23h37m-18°35'165.2°4.9°
(23) Thalia - 2026-09-05
astro.vanbuitenen.nl


 
-1 year
-1 month
-1 day
Now
+1 day
+1 month
+1 year

The interactive orbit chart above shows the body's path through the solar system and its position at the given date. Green and blue lines are shown perpendicular to the ecliptic plane: Green if the path is above the ecliptic plane, blue if it is below. (Left-click and drag to rotate the view; Right-click and drag to move the view; Use scroll wheel to zoom in our out.)

The orbital elements of Thalia are:

            e (Eccentricity)                : 0.2313135
            a (Semimajor axis)              : 2.6286617
            i (Inclination)                 : 10.10773
            Ω (Longitude of ascending node) : 66.47956
            ω (Argument of perihelion)      : 61.67082
            M (Mean anomaly)                : 216.40252
            Epoch                           : 2026 Jun 09

            L (Longitude of perihelion)     : 127.77442
            B (Latitude of perihelion)      : 8.88670
            P (Orbital period in years)     : 4.26            
        

The light curve chart below shows the estimated development of the minor planet's magnitude.


The all-sky chart below shows the path of the minor planet over the same period as the light curve. The current position is marked yellow.





The following chart shows the path of the minor planet in the next few days. The field of view is optimized for (~10x50) binoculars and finderscopes.




Ephemerides:
Date       Time       RA (2000)    DEC (2000)    delta   radius  elong  phase   PA    magn
2026-09-05 00:00 UT   23 41 21.1   -18 10 28     2.061    3.043  164.0    5.3   313   11.5 
2026-09-05 14:31 UT   23 40 50.2   -18 13 57     2.059    3.042  164.2    5.2   315   11.5 
2026-09-06 00:00 UT   23 40 30.0   -18 16 13     2.058    3.041  164.4    5.1   317   11.5 
2026-09-07 00:00 UT   23 39 38.3   -18 21 52     2.056    3.040  164.7    5.0   321   11.5 
2026-09-08 00:00 UT   23 38 46.1   -18 27 25     2.054    3.038  165.0    4.9   325   11.5 
2026-09-09 00:00 UT   23 37 53.5   -18 32 52     2.052    3.037  165.1    4.9   330   11.5 
2026-09-10 00:00 UT   23 37 00.5   -18 38 12     2.050    3.035  165.2    4.9   335   11.5 
2026-09-11 00:00 UT   23 36 07.1   -18 43 26     2.049    3.034  165.2    4.9   340   11.5 
2026-09-12 00:00 UT   23 35 13.4   -18 48 31     2.048    3.032  165.1    4.9   344   11.5 
2026-09-13 00:00 UT   23 34 19.5   -18 53 29     2.048    3.030  164.9    5.0   349   11.5 
2026-09-14 00:00 UT   23 33 25.4   -18 58 19     2.047    3.029  164.6    5.1   353   11.5 
2026-09-15 00:00 UT   23 32 31.2   -19 03 00     2.047    3.027  164.2    5.2   358   11.5 
2026-09-16 00:00 UT   23 31 37.0   -19 07 33     2.047    3.026  163.7    5.3     2   11.5 
2026-09-17 00:00 UT   23 30 42.7   -19 11 56     2.048    3.024  163.2    5.5     6   11.5 
2026-09-18 00:00 UT   23 29 48.4   -19 16 10     2.048    3.022  162.6    5.7     9   11.5 
2026-09-19 00:00 UT   23 28 54.3   -19 20 15     2.049    3.021  162.0    5.9    12   11.5 
2026-09-20 00:00 UT   23 28 00.3   -19 24 09     2.051    3.019  161.3    6.1    16   11.5 
2026-09-21 00:00 UT   23 27 06.6   -19 27 54     2.052    3.017  160.5    6.4    19   11.5 
2026-09-22 00:00 UT   23 26 13.1   -19 31 28     2.054    3.016  159.7    6.6    21   11.5 
2026-09-23 00:00 UT   23 25 19.9   -19 34 51     2.056    3.014  158.9    6.9    24   11.5 
2026-09-24 00:00 UT   23 24 27.1   -19 38 04     2.058    3.012  158.1    7.1    26   11.6 
2026-09-25 00:00 UT   23 23 34.8   -19 41 05     2.061    3.011  157.2    7.4    28   11.6 
2026-09-26 00:00 UT   23 22 42.9   -19 43 56     2.064    3.009  156.3    7.7    30   11.6 
2026-09-27 00:00 UT   23 21 51.5   -19 46 36     2.067    3.007  155.4    8.0    32   11.6 
2026-09-28 00:00 UT   23 21 00.7   -19 49 04     2.070    3.006  154.4    8.3    34   11.6 
2026-09-29 00:00 UT   23 20 10.6   -19 51 21     2.074    3.004  153.5    8.6    35   11.6 
2026-09-30 00:00 UT   23 19 21.1   -19 53 26     2.078    3.002  152.5    8.9    37   11.6 
2026-10-01 00:00 UT   23 18 32.3   -19 55 19     2.082    3.001  151.5    9.1    38   11.7 
2026-10-02 00:00 UT   23 17 44.3   -19 57 01     2.087    2.999  150.6    9.4    40   11.7 
2026-10-03 00:00 UT   23 16 57.0   -19 58 32     2.091    2.997  149.6    9.7    41   11.7 
2026-10-04 00:00 UT   23 16 10.7   -19 59 50     2.096    2.996  148.6   10.0    42   11.7 
2026-10-05 00:00 UT   23 15 25.2   -20 00 56     2.101    2.994  147.5   10.3    43   11.7 


    Terminology:
            
    delta:  distance between minor planet and earth in AU
    radius: distance between minor planet and sun in AU
    magn:   magnitude (brightness) estimate    
    ra:     right ascension in hours (24h = 360deg)
    dec:    declination in degrees
    elong:  elongation in degrees (angle sun-earth-minor planet)    
    phase:  phase angle in degrees (angle sun-minor planet-earth)        
    AU:     Astronomical Unit (mean distance between earth and sun: 149597870.7 km
    

Orbital elements provided by the MPC (Minor Planet Center).
Calculations by a modified version of AAPlus, a C# implementation of the AA+ project by PJ Naughter from the algorithms presented in the book "Astronomical Algorithms" by Jean Meeus.
NGC2000 dso catalog and star labels from VizieR as provided by the Strasbourg astronomical Data Center.
Tycho2 catalog from the ESO archive.